Location: الشقيري
(17.1356°N, 42.8272°E)
Time: 10:09:27
(UTC+00:00)

N. Korean satellite - Pass Details

Date: 23 November 2019
Orbit: 456 x 506 km, 97.2° (Epoch: 09 December)

Event Time Altitude Azimuth Distance (km) Brightness Sun altitude
Rises 14:54:01 0° 186° (S) 2,536 10.6 -5.6°
Reaches altitude 10° 14:56:12 10° 197° (SSW) 1,667 9.8 -6.1°
Maximum altitude 14:59:26 32° 261° (W) 867 8.8 -6.9°
Drops below altitude 10° 15:02:43 10° 325° (NW) 1,694 9.5 -7.6°
Sets 15:04:58 0° 336° (NNW) 2,585 10.3 -8.1°
